Regional Weather Roundup
Issued by NWS Wakefield, VA

Home | Current Version | Previous Version | Graphics & Text | Print | Product List | Glossary On
Versions: 1 2 3 4 5 6 7 8 9 10 11 12 13 14 15 16 17 18 19 20 21 22 23 24 25 26 27 28 29 30 31 32 33 34 35 36 37 38 39 40 41 42 43 44 45 46 47 48 49 50
000
ASUS41 KAKQ 241610
RWRAKQ

REGIONAL WEATHER ROUNDUP
NATIONAL WEATHER SERVICE WAKEFIELD VA
1200 PM EDT THU JUL 24 2014

Note: "fair" indicates few or no clouds below 12,000 feet with no
significant weather and/or obstructions to visibility. * = Denotes
station may not report precipitation (e.g., rain,snow,etc.),
thunder or fog.

VAZ042-051-052>054-056-241700-
NORTHERN VIRGINIA

CITY           SKY/WX    TMP DP  RH WIND       PRES   REMARKS
WASH NATIONAL  PTSUNNY   77  62  59 N8        29.93S
DULLES         CLOUDY    76  61  59 N8        29.94S
FORT BELVOIR   PTSUNNY   75  66  74 VRB6      29.93S
QUANTICO       CLOUDY    72  66  81 N7        29.93S
FREDERICKSBRG* CLOUDY    76  69  80 N6        29.91S
STAFFORD*      CLOUDY    73  70  90 N8        29.97S
WARRENTON      CLOUDY    75  71  89 NE7       29.93S
CULPEPER*      PTSUNNY  N/A N/A N/A NE5       29.94S
MANASSAS*      CLOUDY    73  66  78 N7        29.94R
LEESBURG*      CLOUDY    73  64  73 NE8       29.95S
WINCHESTER     CLOUDY    72  63  73 CALM      29.97R
$$

VAZ048-049-060>072-079>083-241700-
CENTRAL AND SOUTH CENTRAL VIRGINIA...AND NORTH CENTRAL NORTH CAROLINA

CITY           SKY/WX    TMP DP  RH WIND       PRES   REMARKS
RICHMOND       LGT RAIN  79  71  76 W3        29.90F
CHESTERFIELD*  CLOUDY    77  63  61 NE3       29.92F
HANOVER        PTSUNNY   78  72  81 VRB3      29.92F
TAPPAHANNOCK*  CLOUDY    77  71  81 N3        29.91S
CHARLOTTSVILLE CLOUDY    74  67  78 NE13      29.93S
ORANGE*        LGT RAIN  70  68  94 N7        29.96S
LOUISA*        CLOUDY    77  70  78 NE6       29.92F
FARMVILLE*     PTSUNNY   79  70  73 CALM      29.90F
SOUTH HILL*    CLOUDY    79  73  83 CALM      29.96F
ROANOKE RAPIDS CLOUDY    79  72  78 N3        29.90S
RALEIGH        PTSUNNY   81  71  71 E5        29.92F
$$

VAZ088>098-241700-
SOUTHEAST VIRGINIA

CITY           SKY/WX    TMP DP  RH WIND       PRES   REMARKS
NORFOLK        LGT RAIN  76  72  87 CALM      29.89R
VIRGINIA BEACH LGT RAIN  74  72  93 NW3       29.88R FOG
NORFOLK NAVAL  LGT RAIN  78  73  84 NW5       29.91R
WEST POINT*    CLOUDY    78  74  85 CALM      29.91S
NEWPORT NEWS   LGT RAIN  82  74  76 NW5       29.90R
LANGLEY AFB    DRIZZLE   78  76  94 NW7       29.89R FOG
FORT EUSTIS    RAIN      77  77 100 NW7       29.88R FOG
WILLIAMSBURG*  CLOUDY    79  75  89 CALM      29.91S
FRANKLIN*      PTSUNNY   73  73 100 CALM      29.90F
WAKEFIELD      LGT RAIN  74  72  93 NW3       29.90F FOG
$$

VAZ020-022-025-037-045-241700-
WESTERN AND SOUTHWEST VIRGINIA

CITY           SKY/WX    TMP DP  RH WIND       PRES   REMARKS
STAUNTON*      PTSUNNY   75  65  71 NE14      29.98S
HOT SPRINGS VA CLOUDY    65  61  88 W3        30.08S
LYNCHBURG      MOSUNNY   79  67  66 S3        29.95F
DANVILLE       CLOUDY    77  70  79 CALM      29.94S
MARTINSVILLE   PTSUNNY   82  70  66 SW3       29.97S
ROANOKE        PTSUNNY   82  64  54 CALM      29.95F
BLACKSBURG     MOSUNNY   79  70  73 CALM        N/A
DUBLIN*        MOSUNNY   81  66  59 W7        30.00F
MARION*        PTSUNNY   76  68  78 SW6       30.05S
HILLSVILLE*    CLOUDY    75  64  68 SW9       30.03F
RICHLANDS*     MOSUNNY   77  68  72 SW7       30.03F
WISE*          MOSUNNY   77  63  61 W12       30.05S
ABINGDON*      CLOUDY    76  68  75 NW6       30.02S
$$

MDZ021>025-VAZ099-100-241700-
SOUTHERN MARYLAND AND THE DELMARVA PENINSULA

CITY           SKY/WX    TMP DP  RH WIND       PRES   REMARKS
PATUXENT RIVER CLOUDY    75  67  76 NE6       29.90S
BAY BRIDGE APT   N/A     73  64  73 N8        29.92R
LEONARDTOWN    CLOUDY    72  68  88 CALM      29.92S
DOVER          CLOUDY    73  68  84 NW7       29.89R
GEORGETOWN     CLOUDY    74  68  81 E6        29.91R
EASTON         CLOUDY    75  66  73 N7        29.95R
CAMBRIDGE      CLOUDY    77  68  73 N6        29.90S
SALISBURY      NOT AVBL
OCEAN CITY     LGT RAIN  74  70  87 NE5       29.89F
WALLOPS ISLAND LGT RAIN  75  73  93 NE10      29.88F FOG
ACCOMACK*        N/A     73  72  94 N6        29.87F
$$

NCZ012>017-030>032-241700-
EASTERN NORTH CAROLINA

CITY           SKY/WX    TMP DP  RH WIND       PRES   REMARKS
ELIZABETH CITY MOSUNNY   81  70  69 N9        29.88S
AHOSKIE*       CLOUDY    75  69  81 NE7       29.90F
EDENTON*       LGT RAIN  79  71  76 NW6       29.89R
CURRITUCK*     MOSUNNY   82  67  60 N10       29.89F
KILL DEVIL HLS MOSUNNY   84  74  72 W13G18    29.87S
MANTEO         NOT AVBL
CAPE HATTERAS  SUNNY     85  78  80 SW10      29.89F HX  96
GOLDSBORO      TSTM      75  75 100 NW9G21    29.88R FOG
WASHINGTON     CLOUDY    73  71  93 N14       29.90R
GREENVILLE     TSTM      73  72  94 CALM      29.93R
NEW BERN       SUNNY     90  74  59 W10       29.89F HX  99
WILMINGTON     MOSUNNY   90  73  57 SW14      29.91F HX  98
$$

VAZ048-241700-
ELSEWHERE

CITY           SKY/WX    TMP DP  RH WIND       PRES   REMARKS
HARRISBURG PA  MOSUNNY   77  57  50 N10       29.93F
BALTIMORE      CLOUDY    73  62  68 N7        29.92S
ANNAPOLIS      CLOUDY    74  64  71 N7        29.92S
ANDREWS AFB    NOT AVBL
WILMINGTON DE  CLOUDY    75  63  66 NW12      29.92R
PHILADELPHIA   CLOUDY    76  60  57 NW9       29.90S
WILDWOOD NJ*   CLOUDY    73  66  78 N3        29.90S
ATLANTIC CITY  LGT RAIN  76  67  73 NW7       29.88S
HENDERSON NC   PTSUNNY   77  70  80 N3        29.92F
GREENSBORO     PTSUNNY   80  70  71 CALM      29.94S
ROCKY MOUNT    CLOUDY    79  74  84 N5        29.90S
FAYETTEVILLE   MOSUNNY   88  72  58 SW15      29.90F
CHARLOTTE      PTSUNNY   83  68  60 NW3       29.96S
$$

VAZ100-241700-
MARINE

STATION/POSITION TIME  TEMP    WIND        PRES    WAVE   SWELL
                       AIR SEA DIR/SP/G            HT/PER HT/PER
                 (UTC) (F)     (DEG/KT/KT) (MB)    (FT/S) (FT/S)
44066 TX TWR #4  1600   72 74  340/ 12/ 12 1010.2R   3/ 8   2/ 8
CAPE MAY NJ      1600   74 77  350/  5/  6 1011.8F
LEWES DE         1600   73 72   10/  6/  7 1012.2S
15NM E FENWICK I 1600   72 76              1012.4R   3/ 8
OCEAN-CITY-INLET 1600   73 70   20/  4/  6 1012.1R
WACHAPREAGUE VA  1600   75 81  360/  4/  8 1011.4S
THOMAS POINT MD  1600   73 79  360/ 11/ 13 1013.4R
GOOSES REEF MD   1600   75      30/ 12/ 14 1013.0S
COVE POINT MD    1600   74      70/ 10/ 12 1012.3F
SOLOMONS ISLAND  1600      81                N/A
BISHOPS HEAD MD  1600   73 79   40/  9/ 11 1012.0R
PINEY POINT MD   1600           80/  4/  5   N/A
POTOMAC MD       1600   74      50/ 12/ 16 1011.6R
CAMBRIDGE MD     1600   74 80  360/  6/  6 1012.4R
LEWISETTA VA     1600   75 81   50/  6/ 10 1012.3S
RAPPAHANNOCK LGT 1600           20/ 13/ 16 1012.2S
STINGRAY PT      1600   76      30/ 14/ 17 1012.2R
YORK RVR RNG VA  1600   77     350/  9/ 10 1011.6R
YORKTOWN VA      1600   77 81  320/  9/ 10 1012.1R
JAMESTOWN VA     1600   74     340/  6/  8   N/A
DOMINION TERM VA 1600   76     320/  6/  8 1012.3R
KIPTOPEKE VA     1600      82   80/  4/  6   N/A
CHES BAY BRIDGE  1600   75 79  330/  4/  5 1011.4R
CAPE HENRY VA    1600   74      20/  8/ 10 1010.2F
WILLOUBY STN VA  1600          260/  3/  3 1011.6R
S CRANEY ISL VA  1600          270/  4/  6 1012.4R
CAPE HENRY BUOY  1600      77                N/A     3/ 7
1ST LANDING BUOY 1600   76      40/  6/  8 1011.2F
CAPE CHARLES BUO 1600      74                N/A     2/ 6
OFFSHORE WE BUOY 1600      78                N/A     3/ 3
64NM E OF VA BCH 1600   78 79  260/ 12/ 16 1011.0R   4/ 6   3/ 6
DUCK PIER NC     1600   80 69  300/ 13/ 23 1011.0R
44056 DUCK FRF   1600                        N/A     1/ 9
OREGON INLET NC  1600   84 83  270/  7/ 12 1011.5S
HATTERAS NC      1600   83 81  210/  8/ 13 1012.6F
DIAMOND SHLS NC  1600          VRB 17/ 19  1012.3F   4/ 5   2/ 8
CAPE LOOKOUT NC  1500   83     230/ 10/ 14 1013.4S
$$


USA.gov is the U.S. government's official web portal to all federal, state and local government web resources and services.